Weather History for Wisconsin Rapids, WI

Change the Weather History Date:

Wednesday, October 19, 2011

  Actual Average Record
Temperature  
Mean Temperature 41 °F -  
Max Temperature 48 °F 54 °F 81 °F (1953)
Min Temperature 34 °F 32 °F 13 °F (1972)
Degree Days  
Heating Degree Days 24    
Moisture  
Dew Point 33 °F    
Average Humidity 69    
Maximum Humidity 92    
Minimum Humidity 50    
Precipitation  
Precipitation 0.00 in - - ()
Sea Level Pressure  
Sea Level Pressure 29.95 in    
Wind  
Wind Speed 13 mph (North)    
Max Wind Speed 24 mph    
Max Gust Speed 34 mph    
Visibility 10 miles    
Events      
Averages and records for this station are not official NWS values.
T = Trace of Precipitation, MM = Missing Value Source: NWS Daily Summary

Daily Weather History Graph

Daily Weather History Graph

Search for Another Location

Airport:

Trip Planner

Search our weather history database for the weather conditions in past years. The results will help you decide how hot, cold, wet, or windy it might be!

Date:

Astronomy

Oct. 19, 2011 Rise Set
Actual Time 7:19 AM CDT 6:08 PM CDT
Civil Twilight 6:49 AM CDT 6:38 PM CDT
Nautical Twilight 6:15 AM CDT 7:11 PM CDT
Astronomical Twilight 5:42 AM CDT 7:45 PM CDT
Moon 11:49 PM CDT (10/19) 1:56 PM CDT (10/19)
Length of Visible Light 11h 48m
Length of Day
10h 49m
Waning Gibbous, 54% of the Moon is Illuminated
Oct 19
Waning Gibbous
Oct 19
Last Quarter
Oct 26
New
Nov 2
First Quarter
Nov 10
Full

Hourly Weather History & Observations

Time (CDT) Temp. Windchill Dew Point Humidity Pressure Visibility Wind Dir Wind Speed Gust Speed Precip Events Conditions
12:54 AM 42.1 °F 35.7 °F 33.1 °F 70% 29.98 in 10.0 mi NNE 11.5 mph - N/A   Overcast
3:54 AM 34.0 °F 29.8 °F 32.0 °F 92% 29.99 in 10.0 mi North 4.6 mph - N/A   Partly Cloudy
6:54 AM 39.0 °F 32.8 °F 35.1 °F 86% 29.99 in 10.0 mi North 9.2 mph - N/A   Overcast
7:54 AM 39.9 °F 32.9 °F 34.0 °F 79% 29.99 in 10.0 mi North 11.5 mph - N/A   Overcast
8:54 AM 39.9 °F 31.4 °F 34.0 °F 79% 30.01 in 10.0 mi NNE 16.1 mph 24.2 mph N/A   Scattered Clouds
9:54 AM 42.1 °F 35.7 °F 34.0 °F 73% 30.01 in 10.0 mi NNE 11.5 mph - N/A   Overcast
11:17 AM 44.6 °F 36.9 °F 33.8 °F 66% 29.98 in 10.0 mi North 18.4 mph 25.3 mph 0.00 in   Overcast
11:54 AM 46.0 °F 39.0 °F 34.0 °F 63% 29.99 in 10.0 mi North 17.3 mph 24.2 mph 0.00 in   Overcast
12:37 PM 48.2 °F - 33.8 °F 58% 29.96 in 10.0 mi North 17.3 mph 28.8 mph N/A   Mostly Cloudy
12:54 PM 48.0 °F - 34.0 °F 58% 29.97 in 10.0 mi North 15.0 mph 25.3 mph N/A   Mostly Cloudy
1:54 PM 46.9 °F - 33.1 °F 59% 29.95 in 10.0 mi North 15.0 mph 24.2 mph N/A   Overcast
2:54 PM 48.0 °F - 30.9 °F 52% 29.93 in 10.0 mi NNE 19.6 mph 26.5 mph N/A   Overcast
3:54 PM 48.9 °F - 30.9 °F 50% 29.93 in 10.0 mi NNE 10.4 mph 25.3 mph N/A   Overcast
4:54 PM 48.0 °F - 32.0 °F 54% 29.92 in 10.0 mi North 16.1 mph 28.8 mph N/A   Overcast
5:54 PM 46.0 °F 38.5 °F 33.1 °F 61% 29.93 in 10.0 mi North 19.6 mph 26.5 mph N/A   Scattered Clouds
6:54 PM 43.0 °F 37.2 °F 35.1 °F 74% 29.95 in 10.0 mi North 10.4 mph - N/A   Partly Cloudy
7:54 PM 42.1 °F 34.5 °F 35.1 °F 76% 29.94 in 10.0 mi North 15.0 mph - N/A   Clear
8:54 PM 42.1 °F 34.5 °F 35.1 °F 76% 29.93 in 10.0 mi North 15.0 mph 20.7 mph N/A   Clear
9:54 PM 41.0 °F 33.9 °F 34.0 °F 76% 29.91 in 10.0 mi North 12.7 mph - N/A   Clear
10:45 PM 41.0 °F 30.9 °F 33.8 °F 76% 29.88 in 10.0 mi NNE 24.2 mph 34.5 mph N/A   Mostly Cloudy
10:54 PM 41.0 °F 31.4 °F 32.0 °F 70% 29.90 in 10.0 mi NNE 21.9 mph 34.5 mph N/A   Mostly Cloudy
11:22 PM 39.2 °F 30.8 °F 32.0 °F 75% 29.86 in 10.0 mi North 15.0 mph 26.5 mph N/A   Scattered Clouds
11:54 PM 39.0 °F 31.0 °F 30.9 °F 73% 29.87 in 10.0 mi North 13.8 mph - N/A   Clear